CW5834 Weather Reports


time (UTC)temp
C
wind
direction
speed
KPH
gust
KPH
rain 1hr
cm
rain 24hr
cm
rain mn
cm
humidity
%
barometer
mb
20260906082016 21 0.0 0.0 0.00 0.36 0.03 96 1014.4
20260906081016 21 0.0 0.0 0.00 0.36 0.03 95 1014.3
20260906080016 21 0.0 3.2 0.00 0.36 0.03 96 1014.2
20260906075036 21 0.0 0.0 0.00 0.36 0.03 96 1014.1
20260906074036 21 0.0 0.0 0.00 0.36 0.03 96 1014.1
20260906073016 21 0.0 0.0 0.00 0.36 0.03 95 1014.0
20260906072016 21 0.0 3.2 0.00 0.36 0.03 96 1014.2
20260906071016 21 0.0 0.0 0.03 0.36 0.03 95 1014.3
20260906070036 21 0.0 3.2 0.03 0.36 0.03 95 1014.4
20260906065016 21 0.0 1.6 0.03 0.36 0.03 95 1014.5
20260906064037 21 0.0 0.0 0.03 0.36 0.03 95 1014.5
20260906063015 21 0.0 3.2 0.03 0.36 0.03 95 1014.7
20260906062016 21 0.0 3.2 0.03 0.36 0.03 96 1014.8
20260906061016 21 0.0 1.6 0.00 0.33 0.00 95 1014.9
20260906060035 21 0.0 0.0 0.00 0.33 0.00 95 1015.1
20260906055016 21 0.0 3.2 0.00 0.33 0.00 96 1014.9
20260906054015 21 0.0 3.2 0.00 0.33 0.00 95 1015.0
20260906053035 21 0.0 0.0 0.00 0.33 0.00 95 1014.9
20260906052017 21 0.0 3.2 0.00 0.33 0.00 95 1014.7
20260906051017 21 0.0 3.2 0.00 0.33 0.00 95 1014.7
20260906050018 21 0.0 3.2 0.00 0.33 0.00 95 1014.8
20260906045015 21 0.0 1.6 0.00 0.33 0.00 95 1015.1
20260906044038 21 0.0 3.2 0.00 0.33 0.00 95 1015.0
20260906043017 21 0.0 0.0 0.00 0.33 0.00 95 1014.8
20260906042037 21 0.0 3.2 0.00 0.33 0.00 95 1014.9
20260906041017 21 0.0 3.2 0.00 0.33 0.00 95 1014.9
20260906040017 21 0.0 0.0 0.00 0.33 0.33 95 1015.0
20260906035016 21 0.0 0.0 0.00 0.33 0.33 95 1015.1
20260906034016 21 0.0 3.2 0.00 0.33 0.33 95 1015.2
20260906033016 21 0.0 3.2 0.00 0.33 0.33 95 1015.3
20260906032016 21 0.0 3.2 0.00 0.33 0.33 95 1015.3
20260906031016 21 0.0 3.2 0.00 0.33 0.33 95 1015.3
20260906030016 21 0.0 1.6 0.00 0.33 0.33 95 1015.1
20260906025016 21 0.0 1.6 0.00 0.33 0.33 95 1015.1
20260906024016 21 315 1.6 1.6 0.00 0.33 0.33 94 1015.1
20260906023016 22 0.0 3.2 0.00 0.33 0.33 95 1014.8
20260906022016 22 0.0 3.2 0.00 0.33 0.33 95 1014.8
20260906021016 21 0.0 1.6 0.00 0.33 0.33 94 1014.8
20260906020016 21 0.0 3.2 0.00 0.33 0.33 94 1014.3
20260906015036 21 293 1.6 3.2 0.00 0.33 0.33 94 1014.4
20260906014027 21 0.0 3.2 0.00 0.33 0.33 94 1014.5
20260906013016 22 0.0 0.0 0.00 0.33 0.33 93 1014.1
20260906012016 22 293 1.6 1.6 0.00 0.33 0.33 93 1013.9
20260906011016 22 0.0 0.0 0.00 0.33 0.33 93 1014.0
20260906010016 22 0.0 3.2 0.00 0.33 0.33 93 1013.8
20260906005016 22 0.0 0.0 0.00 0.33 0.33 93 1013.7
20260906004016 22 0.0 3.2 0.00 0.33 0.33 93 1013.6
20260906003016 22 0 1.6 1.6 0.00 0.33 0.33 92 1013.4
20260906002036 22 0.0 0.0 0.00 0.33 0.33 92 1013.1
20260906001016 22 0.0 1.6 0.00 0.33 0.33 92 1013.5
20260906000015 22 0.0 1.6 0.00 0.33 0.33 92 1013.5
20260905235016 23 0 1.6 3.2 0.00 0.33 0.33 91 1013.3
20260905234016 23 90 1.6 3.2 0.03 0.33 0.33 90 1013.4
20260905233035 23 0.0 3.2 0.25 0.33 0.33 89 1013.2
20260905232015 23 270 1.6 9.7 0.25 0.33 0.33 89 1013.4
20260905231016 23 225 1.6 4.8 0.25 0.33 0.33 91 1013.3
20260905230016 23 315 1.6 6.4 0.33 0.33 0.33 88 1013.3
20260905225015 24 338 1.6 4.8 0.33 0.33 0.33 82 1013.3
20260905224016 26 0 9.7 24.1 0.30 0.30 0.30 71 1013.7
20260905223015 27 270 1.6 3.2 0.08 0.08 0.08 83 1013.8
20260905222015 27 0.0 3.2 0.08 0.08 0.08 84 1013.5
20260905221018 27 315 1.6 4.8 0.08 0.08 0.08 81 1013.6
20260905220015 28 293 3.2 8.0 0.00 0.00 0.00 74 1013.9
20260905215056 30 0.0 3.2 0.00 0.00 0.00 70 1013.6
20260905214015 30 0.0 3.2 0.00 0.00 0.00 68 1013.8
20260905213017 31 158 1.6 3.2 0.00 0.00 0.00 65 1014.0
20260905212017 31 0.0 3.2 0.00 0.00 0.00 63 1013.9
20260905211017 32 158 3.2 6.4 0.00 0.00 0.00 63 1014.0
20260905210017 32 135 3.2 8.0 0.00 0.00 0.00 63 1014.1
20260905205017 32 203 3.2 8.0 0.00 0.00 0.00 63 1014.0
20260905204017 31 158 1.6 6.4 0.00 0.00 0.00 64 1014.0
20260905203017 32 135 3.2 4.8 0.00 0.00 0.00 62 1014.1
20260905202018 32 135 1.6 4.8 0.00 0.00 0.00 62 1014.3
20260905201017 31 135 1.6 8.0 0.00 0.00 0.00 64 1014.3
20260905200017 31 158 3.2 9.7 0.00 0.00 0.00 64 1014.7
20260905195017 31 135 4.8 9.7 0.00 0.00 0.00 64 1015.0
20260905194015 31 135 4.8 11.3 0.00 0.00 0.00 64 1015.0
20260905193037 31 135 3.2 8.0 0.00 0.00 0.00 64 1015.2
20260905192017 31 203 3.2 8.0 0.00 0.00 0.00 65 1015.4
20260905191017 31 135 4.8 9.7 0.00 0.00 0.00 65 1015.5
20260905190037 31 158 4.8 11.3 0.00 0.00 0.00 65 1015.5
20260905185037 31 0 1.6 3.2 0.00 0.00 0.00 64 1015.7
20260905184017 31 113 1.6 3.2 0.00 0.00 0.00 65 1015.7
20260905183017 31 135 3.2 9.7 0.00 0.00 0.00 66 1016.0
20260905182018 31 158 4.8 12.9 0.00 0.00 0.00 66 1016.2
20260905181137 30 68 3.2 8.0 0.00 0.00 0.00 69 1016.4
20260905180037 30 158 3.2 8.0 0.00 0.00 0.00 71 1016.7
20260905175017 31 135 3.2 9.7 0.00 0.00 0.00 69 1016.8
20260905174017 30 90 3.2 6.4 0.00 0.00 0.00 69 1016.9
20260905173017 30 45 3.2 6.4 0.00 0.00 0.00 68 1016.9
20260905172017 30 135 3.2 9.7 0.00 0.00 0.00 70 1016.9
20260905171017 30 135 8.0 14.5 0.00 0.00 0.00 70 1017.1
20260905170037 30 113 3.2 8.0 0.00 0.00 0.00 73 1017.1
20260905165017 28 23 3.2 9.7 0.00 0.00 0.00 73 1017.2
20260905164017 28 0 1.6 3.2 0.00 0.00 0.00 75 1017.2
20260905163016 28 0 3.2 4.8 0.00 0.00 0.00 73 1017.1
20260905162017 28 113 3.2 8.0 0.00 0.00 0.00 72 1017.4
20260905161017 28 0 4.8 14.5 0.00 0.00 0.00 72 1017.5
20260905160037 29 0 9.7 22.5 0.00 0.00 0.00 72 1017.5
20260905155017 29 23 3.2 8.0 0.00 0.00 0.00 73 1017.6
20260905154017 29 23 3.2 14.5 0.00 0.00 0.00 71 1017.6
20260905153017 30 180 1.6 4.8 0.00 0.00 0.00 70 1017.2
20260905152017 30 225 1.6 4.8 0.00 0.00 0.00 70 1016.9
20260905151016 29 225 3.2 6.4 0.00 0.00 0.00 73 1016.9
20260905150017 28 203 4.8 9.7 0.00 0.00 0.00 73 1016.8
20260905145017 29 225 3.2 11.3 0.00 0.00 0.00 71 1017.0
20260905144016 28 203 3.2 6.4 0.00 0.00 0.00 72 1016.9
20260905143016 28 225 3.2 6.4 0.00 0.00 0.00 73 1017.0
20260905142017 28 135 1.6 3.2 0.00 0.00 0.00 73 1017.2
20260905141017 28 180 1.6 3.2 0.00 0.00 0.00 74 1017.2
20260905140016 27 180 1.6 3.2 0.00 0.00 0.00 76 1017.2
20260905135016 27 180 1.6 3.2 0.00 0.00 0.00 77 1017.0
20260905134016 26 225 1.6 3.2 0.00 0.00 0.00 78 1017.1
20260905133016 26 0.0 3.2 0.00 0.00 0.00 84 1017.2
20260905132016 25 0.0 3.2 0.00 0.00 0.00 85 1017.2
20260905131016 24 0.0 3.2 0.00 0.00 0.00 86 1017.2
20260905130017 23 0.0 3.2 0.00 0.00 0.00 90 1017.3
20260905125017 22 0.0 1.6 0.00 0.00 0.00 91 1017.6
20260905124017 22 0.0 1.6 0.00 0.00 0.00 92 1017.5
20260905123016 22 135 1.6 3.2 0.00 0.00 0.00 93 1017.5
20260905122016 21 0.0 0.0 0.00 0.00 0.00 93 1017.3
20260905121016 21 0.0 1.6 0.00 0.00 0.00 94 1017.2
20260905120016 21 135 1.6 3.2 0.00 0.00 0.00 95 1017.1
20260905115016 20 0.0 0.0 0.00 0.00 0.00 95 1017.2
20260905114016 20 0.0 3.2 0.00 0.00 0.00 94 1016.9
20260905113016 20 0.0 0.0 0.00 0.00 0.00 94 1017.0
20260905112016 20 0.0 0.0 0.00 0.00 0.00 94 1016.9
20260905111036 20 0.0 3.2 0.00 0.00 0.00 94 1016.5
20260905110016 20 0.0 0.0 0.00 0.00 0.00 94 1016.6
20260905105016 20 0.0 0.0 0.00 0.00 0.00 94 1016.6
20260905104036 20 0.0 3.2 0.00 0.00 0.00 94 1016.5
20260905103016 20 0 1.6 1.6 0.00 0.00 0.00 94 1016.5
20260905102016 20 0.0 3.2 0.00 0.00 0.00 94 1016.5
20260905101016 20 0.0 3.2 0.00 0.00 0.00 94 1016.4
20260905100036 20 0.0 3.2 0.00 0.00 0.00 93 1016.5
20260905095016 20 0.0 3.2 0.00 0.00 0.00 94 1016.5
20260905094016 20 0.0 3.2 0.00 0.00 0.00 94 1016.3
20260905093016 21 0.0 1.6 0.00 0.00 0.00 94 1016.2
20260905092016 21 0.0 3.2 0.00 0.00 0.00 94 1016.2
20260905091016 21 0.0 3.2 0.00 0.00 0.00 94 1016.1
20260905090016 21 0.0 3.2 0.00 0.00 0.00 93 1016.0
20260905085016 21 0.0 3.2 0.00 0.00 0.00 93 1016.1
20260905084016 21 0.0 3.2 0.00 0.00 0.00 93 1016.2
20260905083016 21 0.0 1.6 0.00 0.00 0.00 93 1016.3